Temp
-14 -15 -15 -15 -15 -15 -16 -16 -16 -16 -16 -17 -17 -17 -17 -17 -17 -17 -17 -17 -17 -18 -18 -18 -18 -18 -18
-15 -15 -15 -15 -16 -16 -16 -16 -16 -17 -17 -17 -17 -17 -17 -17 -17 -18 -18 -18 -18 -18 -18 -18 -18 -18 -18
-15 -16 -16 -16 -16 -16 -17 -17 -17 -17 -17 -17 -17 -17 -17 -18 -18 -18 -18 -18 -18 -18 -18 -18 -18 -18 -18
-16 -16 -16 -16 -17 -17 -17 -17 -17 -17 -17 -18 -18 -18 -18 -18 -18 -18 -18 -18 -18 -18 -19 -18 -18 -18 -18
-16 -16 -16 -17 -17 -17 -17 -17 -17 -17 -18 -18 -18 -18 -18 -18 -19 -19 -19 -19 -19 -19 -19 -19 -19 -19 -19
-17 -17 -17 -17 -17 -17 -17 -17 -18 -18 -18 -18 -18 -19 -19 -19 -19 -19 -19 -20 -20 -20 -20 -20 -20 -20 -20
-17 -17 -17 -17 -18 -18 -18 -18 -18 -18 -19 -19 -19 -19 -19 -20 -20 -20 -20 -20 -20 -20 -20 -20 -21 -21 -21
-17 -17 -18 -18 -18 -18 -18 -18 -19 -19 -19 -19 -19 -20 -20 -20 -20 -20 -20 -20 -20 -21 -21 -21 -21 -21 -22
-18 -18 -18 -18 -18 -18 -19 -19 -19 -19 -19 -20 -20 -20 -20 -20 -21 -20 -21 -21 -21 -21 -22 -22 -22 -22 -22
-18 -18 -18 -18 -19 -19 -19 -19 -19 -20 -20 -20 -20 -20 -21 -21 -21 -21 -21 -21 -21 -22 -22 -22 -22 -22 -23
-18 -18 -18 -19 -19 -19 -19 -19 -20 -20 -20 -20 -20 -21 -21 -21 -21 -21 -22 -22 -22 -22 -23 -23 -23 -24 -25
-18 -18 -19 -19 -19 -19 -19 -19 -20 -20 -20 -20 -21 -21 -21 -21 -21 -22 -22 -22 -22 -23 -23 -24 -25 -25 -25
-19 -19 -19 -19 -19 -19 -20 -20 -20 -20 -20 -21 -21 -21 -21 -21 -22 -22 -22 -22 -23 -23 -24 -25 -26 -26 -25
-19 -19 -19 -19 -20 -20 -20 -20 -20 -20 -21 -21 -21 -21 -22 -22 -22 -23 -23 -23 -23 -23 -24 -25 -26 -26 -26
-20 -20 -20 -20 -20 -20 -20 -21 -21 -21 -21 -21 -21 -22 -22 -22 -23 -23 -23 -23 -24 -24 -25 -26 -26 -26 -26
-20 -20 -20 -20 -20 -20 -21 -21 -21 -21 -21 -22 -22 -22 -22 -23 -23 -24 -24 -24 -24 -25 -25 -26 -26 -26 -26
-20 -20 -20 -20 -21 -21 -21 -22 -22 -22 -22 -22 -22 -22 -23 -23 -24 -24 -24 -25 -25 -25 -26 -26 -26 -27 -27
Height
5723 5721 5718 5715 5711 5708 5705 5702 5699 5697 5695 5693 5691 5689 5687 5684 5681 5678 5676 5673 5671 5669 5667 5665 5665 5665 5665
5715 5712 5710 5707 5704 5701 5698 5695 5693 5691 5688 5687 5685 5683 5680 5677 5674 5672 5670 5668 5667 5664 5663 5662 5660 5660 5660
5706 5704 5702 5698 5697 5694 5691 5688 5686 5684 5681 5679 5677 5675 5672 5670 5667 5665 5663 5662 5660 5659 5658 5655 5654 5654 5653
5698 5696 5694 5691 5689 5687 5684 5681 5679 5677 5674 5671 5669 5666 5664 5662 5660 5657 5655 5653 5652 5651 5650 5649 5647 5645 5643
5691 5688 5686 5684 5681 5679 5676 5674 5671 5668 5665 5663 5661 5658 5656 5654 5651 5649 5647 5645 5643 5641 5640 5638 5638 5637 5636
5683 5681 5679 5676 5673 5671 5668 5666 5663 5661 5658 5655 5652 5650 5647 5645 5643 5640 5639 5637 5635 5633 5631 5629 5627 5626 5625
5675 5673 5670 5668 5665 5663 5660 5658 5655 5652 5649 5647 5644 5642 5639 5636 5634 5632 5629 5627 5625 5622 5620 5617 5615 5613 5612
5667 5665 5662 5660 5657 5655 5652 5649 5646 5643 5641 5638 5635 5633 5630 5627 5624 5622 5620 5617 5614 5611 5608 5605 5602 5600 5598
5658 5656 5654 5651 5649 5646 5643 5641 5638 5634 5632 5629 5626 5623 5620 5617 5615 5612 5609 5606 5603 5599 5594 5591 5588 5585 5582
5650 5648 5646 5643 5640 5637 5634 5631 5628 5625 5623 5619 5616 5613 5611 5607 5604 5601 5598 5593 5589 5584 5579 5575 5571 5568 5565
5642 5639 5636 5633 5631 5628 5625 5622 5619 5616 5612 5609 5606 5603 5600 5596 5593 5589 5584 5579 5574 5569 5564 5559 5554 5551 5550
5632 5630 5627 5624 5621 5618 5615 5612 5609 5606 5602 5598 5595 5593 5589 5585 5580 5576 5572 5566 5561 5555 5548 5542 5538 5536 5535
5623 5621 5618 5615 5612 5608 5605 5602 5599 5595 5592 5588 5584 5581 5576 5572 5567 5562 5557 5551 5547 5541 5534 5528 5525 5523 5522
5613 5611 5608 5605 5601 5598 5595 5592 5588 5584 5580 5576 5573 5569 5564 5559 5553 5547 5543 5537 5531 5526 5521 5517 5513 5510 5508
5603 5600 5597 5594 5590 5587 5584 5580 5576 5572 5568 5564 5560 5556 5551 5545 5539 5533 5528 5522 5517 5511 5507 5503 5499 5495 5493
5592 5589 5586 5583 5579 5575 5572 5568 5564 5559 5555 5552 5548 5543 5538 5531 5525 5518 5513 5508 5502 5497 5491 5488 5483 5477 5475
5581 5578 5574 5571 5567 5563 5560 5556 5552 5548 5543 5539 5535 5531 5525 5519 5511 5502 5497 5492 5487 5481 5475 5471 5468 5457 5453
Wind_Speed
36 36 37 37 37 33 32 30 28 26 25 25 26 27 28 28 29 27 24 24 25 22 20 20 23 22 21
34 35 35 35 33 31 29 28 28 28 27 28 29 29 30 32 30 30 28 26 25 26 25 23 23 25 26
34 34 34 32 31 29 28 27 28 29 29 30 31 31 32 33 32 31 29 29 28 27 27 29 29 28 29
32 33 32 30 29 28 28 28 28 29 29 30 32 32 33 33 33 33 32 32 32 31 30 29 31 33 34
32 31 30 31 30 30 29 29 30 30 31 31 31 33 33 33 34 34 34 34 34 34 35 35 34 33 34
31 33 31 30 30 30 30 30 30 33 32 32 33 34 34 34 34 33 34 35 36 38 39 39 40 40 39
31 30 30 30 31 31 31 32 33 33 33 33 34 34 34 34 34 34 36 37 39 40 41 43 45 45 46
30 30 30 31 32 32 32 32 33 34 34 34 35 34 34 34 33 31 33 36 40 43 44 45 45 47 48
29 30 31 32 32 32 32 33 34 33 34 34 34 35 31 29 32 35 38 41 44 46 47 48 47 48 50
29 31 31 31 32 33 33 34 34 34 34 36 36 30 30 33 36 39 41 44 46 47 48 49 49 51 50
31 31 31 32 32 33 34 33 33 34 37 38 33 32 34 38 42 43 45 46 47 48 49 51 52 47 43
32 31 32 33 33 35 35 33 34 37 39 39 35 37 40 41 44 45 46 47 48 49 52 50 45 42 41
33 34 34 34 35 36 35 35 37 40 43 40 39 42 44 45 46 48 49 50 50 50 49 44 42 40 40
36 36 36 35 36 37 38 39 40 42 44 42 43 45 45 47 48 50 52 51 52 50 46 41 41 41 42
37 37 38 39 39 41 41 42 42 43 45 45 45 46 46 46 49 52 54 53 51 49 45 43 44 45 46
39 39 39 40 42 44 43 43 44 45 47 48 46 45 45 48 51 53 54 53 53 49 46 44 48 52 53
41 41 42 43 45 45 44 45 46 47 49 48 46 47 47 48 53 55 55 53 53 50 48 50 51 53 51
Wind_Direction
288 293 296 299 300 301 302 304 302 296 295 299 300 301 302 300 301 302 305 306 312 311 306 298 285 284 280
289 294 296 299 299 299 301 301 298 296 294 293 294 297 300 299 298 298 300 300 299 301 301 296 290 282 279
291 295 297 297 295 297 299 299 298 296 294 294 295 297 299 297 297 298 297 296 295 292 291 292 291 284 282
292 295 294 294 295 297 297 298 298 297 297 297 298 298 296 294 293 294 295 295 295 295 292 288 285 285 286
293 293 292 295 298 298 299 299 298 299 298 295 294 294 292 293 293 294 294 294 294 294 293 292 289 284 281
291 292 295 298 300 300 300 300 300 298 297 297 296 296 295 296 296 296 296 295 294 293 292 290 288 285 282
292 295 299 301 300 299 299 299 299 299 299 298 298 298 298 298 297 297 296 296 296 295 292 290 287 284 281
295 299 300 300 300 300 298 298 299 301 300 300 299 298 298 298 298 300 301 300 299 298 295 292 290 287 282
296 298 299 299 299 297 297 299 300 299 299 298 297 299 297 296 301 303 304 303 301 298 295 289 287 287 284
295 295 296 300 299 298 298 301 300 299 298 299 299 295 297 300 304 305 304 305 303 300 296 292 289 286 281
293 295 298 299 298 298 299 300 300 299 300 301 293 293 299 300 302 305 305 305 305 302 298 295 290 284 279
291 295 297 298 298 298 299 298 298 300 302 297 289 293 298 299 302 305 306 306 306 304 301 295 290 285 279
291 294 297 298 298 297 297 296 299 303 305 293 288 294 298 298 302 303 305 307 307 306 303 292 288 285 282
290 293 296 298 299 297 296 296 300 304 308 297 292 296 298 300 302 304 305 305 308 309 303 293 287 283 281
290 293 295 297 298 298 296 297 299 303 309 302 296 298 301 303 304 304 304 305 308 306 301 292 288 285 281
290 292 295 297 298 298 296 295 297 302 308 304 300 301 303 304 305 304 305 306 307 304 298 293 292 289 284
290 292 293 295 297 298 296 295 297 301 306 305 302 301 303 303 306 304 305 307 308 304 299 298 296 291 288